SCP
0 0 -0 0 0 0 0 -0 0 0 -0 0 -0 0 0 -0 0 -0 -0 -0 -0 -0 -0 -0 -0 -0 -0 -0 -0 -0 -0 -0 -0 0 0 0 0 0 0 0 -0 -0 0 0
0 -0 0 0 0 0 0 0 0 0 0 0 0 -0 -0 0 0 -0 -0 -0 -0 -0 -0 -0 -0 -0 -0 -0 -0 -0 -0 -0 -0 0 0 0 0 0 0 -0 -0 0 0 0
-0 0 0 0 -0 -0 -0 0 0 0 0 0 -0 -0 0 0 -0 -0 -0 -0 -0 -0 -0 -0 -0 -0 -0 -0 -0 -0 -0 -0 -0 -0 -0 0 -0 -0 0 0 0 0 0 0
0 -0 0 -0 -0 0 0 -0 -0 0 0 -0 0 0 0 -0 0 -0 -0 -0 -0 -0 -0 -0 -0 -0 -0 -0 -0 -0 -0 -0 -0 0 0 -0 0 0 0 0 0 0 0 0
0 0 0 -0 0 -0 0 0 0 -0 -0 -0 -0 -0 0 -0 -0 -0 -0 -0 -0 -0 -0 -0 -0 -0 -0 -0 -0 -0 -0 -0 -0 -0 -0 0 0 0 0 0 0 0 0 0
-0 0 0 0 0 -0 -0 -0 -0 -0 -0 -0 -0 -0 0 0 0 0 0 -0 -0 -0 -0 -0 -0 -0 -0 -0 -0 -0 -0 -0 -0 -0 -0 0 0 0 0 0 1 0 0 0
0 0 0 0 0 0 0 -0 0 0 0 0 0 0 0 -0 0 0 0 0 0 0 -0 -0 -0 -0 -0 -0 -0 -0 -0 -0 -0 -0 -0 -0 0 0 0 0 1 0 0 0
0 0 -0 -0 0 0 0 0 0 -0 0 0 0 0 0 0 0 0 0 0 0 0 -0 -0 -0 -0 -0 -0 -0 -0 -0 0 -0 -0 -0 0 0 0 0 0 0 0 1 0
0 0 0 -0 -0 -0 -0 0 0 -0 0 0 0 0 0 0 0 0 0 0 0 0 0 -0 -0 -0 -0 0 0 0 0 0 0 0 0 1 0 0 1 1 1 1 1 0
0 0 0 0 0 -0 -0 -0 0 -0 0 0 0 0 0 0 0 0 0 0 0 0 0 0 0 -0 -0 -0 0 -0 0 0 0 0 0 1 1 1 1 1 1 0 0 0
-0 0 0 0 0 0 0 0 -0 0 -0 0 0 0 0 0 0 0 0 0 0 0 0 0 0 0 0 0 0 0 0 0 0 0 1 1 1 1 1 1 0 0 0 0
0 0 0 0 0 -0 0 0 0 -0 0 -0 0 0 0 0 0 0 0 0 0 0 0 0 0 0 0 0 0 0 0 0 0 1 1 1 1 1 1 0 0 0 0 0
0 0 0 0 0 0 0 -0 0 0 -0 0 0 0 0 0 0 0 0 0 0 0 0 0 0 0 0 0 0 0 1 1 1 1 1 0 0 0 0 0 0 0 0 0
0 0 0 0 0 0 0 -0 -0 -0 0 -0 -0 0 0 0 0 0 0 0 0 0 0 0 0 0 0 1 1 1 2 2 2 1 0 0 0 0 0 0 0 0 0 0
0 0 0 0 0 0 0 -0 0 -0 0 -0 0 -0 0 0 0 0 0 0 0 0 0 0 0 0 1 1 2 1 0 0 0 0 0 0 0 0 0 0 0 0 0 0
0 0 0 0 0 0 0 0 -0 -0 0 -0 -0 -0 0 0 0 0 0 0 0 0 0 0 1 1 2 1 1 0 0 0 0 0 0 0 0 0 0 0 0 0 0 0
0 0 0 0 0 0 0 -0 -0 -0 -0 -0 -0 -0 0 0 0 0 0 0 0 0 0 0 1 1 1 1 0 0 0 0 0 0 0 0 0 0 0 0 0 0 0 0
0 0 0 0 0 0 0 0 0 0 -0 -0 -0 -0 0 0 0 0 0 0 0 0 0 0 0 0 0 0 0 0 0 0 0 0 0 0 0 0 0 0 0 0 0 0
0 0 0 0 0 0 0 0 0 0 0 0 -0 0 0 0 0 0 0 0 0 0 0 0 0 0 0 0 0 0 0 0 0 0 0 0 0 0 0 0 0 0 0 0
0 0 0 0 0 0 0 0 0 0 0 0 0 0 0 0 0 0 0 0 0 0 0 0 0 0 0 0 0 0 0 0 0 0 0 0 0 0 0 0 0 0 0 0
0 0 0 0 0 0 0 0 0 0 -0 0 0 0 0 0 0 0 0 0 0 0 0 0 0 0 0 0 0 0 0 0 0 0 0 0 0 0 0 0 0 0 0 0
0 0 0 0 0 0 0 0 0 0 -0 0 0 0 0 0 0 0 0 0 0 0 0 0 0 0 0 0 0 0 0 0 0 0 0 0 0 0 0 0 0 0 0 0
0 0 0 0 0 0 0 0 0 0 0 0 0 0 0 0 0 0 0 0 0 0 0 0 0 0 0 0 0 0 0 0 0 0 0 0 0 0 0 0 0 0 0 0
0 0 0 0 0 0 0 0 0 0 0 0 0 0 0 0 0 0 0 0 0 0 0 0 0 0 0 0 0 0 0 0 0 0 0 0 0 0 0 0 0 0 0 0
0 0 0 0 0 0 0 0 0 0 0 0 0 0 0 0 0 0 0 0 0 0 0 0 0 0 0 0 0 0 0 0 0 0 0 0 0 0 0 0 0 0 0 0
0 0 0 0 0 0 0 0 0 0 0 0 0 0 0 0 0 0 0 0 0 0 0 0 0 0 0 0 0 0 0 0 0 0 0 0 0 0 0 0 0 0 0 0
Wind_Speed_500mb
40 27 29 35 16 20 25 29 24 33 35 28 14 18 17 32 26 26 30 32 37 36 35 38 44 45 47 50 55 58 61 57 43 37 39 39 35 32 34 36 42 48 43 42
28 30 34 8 10 17 22 27 27 12 10 15 21 25 22 24 28 31 30 36 36 35 42 43 51 52 54 56 57 57 54 49 44 38 37 36 34 34 38 40 37 44 50 37
32 19 10 13 21 20 22 28 24 18 11 24 29 34 4 18 31 30 33 37 40 45 49 48 52 55 56 59 61 58 53 49 45 40 37 37 36 38 40 41 42 56 58 52
32 27 16 23 23 21 26 27 23 19 20 19 17 16 17 25 27 28 36 35 43 49 51 54 56 60 61 62 59 57 52 49 46 44 41 40 40 39 40 41 43 56 60 52
34 30 21 30 29 24 23 2 15 24 28 29 29 15 22 13 21 30 34 42 41 49 55 60 63 64 64 62 66 61 55 51 48 46 47 43 45 39 37 37 41 52 53 57
36 29 27 33 13 15 16 14 19 23 22 23 27 27 8 29 18 17 23 38 45 48 55 57 58 58 59 59 61 63 60 58 55 54 53 54 48 47 40 39 50 48 51 48
39 29 28 13 21 17 21 25 17 12 17 20 9 13 12 25 7 3 6 18 41 48 53 58 60 62 61 63 65 65 61 61 59 61 60 57 54 49 45 46 50 38 39 43
33 37 41 28 33 23 32 31 13 12 12 8 10 13 12 15 5 9 13 13 18 32 54 60 61 63 62 65 64 61 59 59 57 58 59 49 50 55 57 51 47 46 47 49
35 41 33 38 32 31 27 28 32 22 15 13 14 15 24 13 8 6 5 8 7 21 41 55 61 61 60 58 61 63 56 54 54 59 51 57 53 62 57 48 51 56 46 54
18 25 26 24 20 26 27 18 19 16 8 20 19 17 8 13 12 9 7 10 5 4 15 28 49 59 57 54 53 52 52 51 51 54 49 55 55 63 53 49 55 55 48 45
37 25 21 22 27 33 22 22 19 19 23 8 11 9 18 16 8 3 2 2 5 4 8 16 27 39 52 49 46 46 45 46 45 45 51 47 53 48 34 32 41 41 40 36
47 23 21 34 36 40 19 33 35 20 26 19 16 23 4 11 9 9 16 8 5 5 7 12 17 25 34 41 43 42 40 40 39 37 38 39 32 36 38 36 38 38 37 34
41 27 25 31 23 19 24 29 29 31 21 21 9 15 4 4 9 13 15 15 16 12 13 16 19 24 28 32 35 35 32 32 32 30 40 42 41 40 35 30 30 31 30 30
46 33 39 28 35 30 37 35 32 29 18 24 27 31 24 20 26 25 27 20 24 22 20 21 23 26 29 31 33 33 36 38 35 46 47 38 33 28 21 19 19 19 23 25
31 44 40 43 38 31 35 46 42 40 35 33 29 34 24 22 26 24 12 18 21 25 24 25 27 27 29 30 32 29 39 41 40 33 27 23 18 15 13 14 13 15 18 19
33 31 42 43 39 39 35 35 37 40 37 34 37 40 22 29 29 14 11 17 23 23 26 26 28 29 30 30 31 28 26 28 26 24 20 19 16 19 20 17 16 14 12 10
25 26 32 32 33 37 31 34 36 37 34 31 34 30 29 19 22 23 30 18 21 22 23 26 30 31 30 29 30 31 25 25 24 24 28 28 29 26 24 21 20 15 10 2
14 27 23 18 5 26 20 29 39 43 41 35 33 34 29 29 31 13 9 21 20 23 28 32 34 34 33 34 35 36 33 32 32 33 31 30 28 27 25 21 17 9 5 3
20 21 16 16 25 26 36 18 24 31 32 33 32 31 34 19 4 12 16 23 30 31 30 34 36 38 38 38 38 38 37 36 35 35 34 31 25 23 20 16 11 5 3 5
28 24 20 12 28 37 28 30 27 28 27 30 30 24 15 15 13 22 40 37 39 37 36 38 38 38 37 37 38 39 38 37 35 34 30 25 24 21 16 10 11 8 7 4
13 14 26 23 17 16 20 29 31 24 31 29 16 16 20 18 20 15 43 42 42 41 40 39 38 37 37 38 39 40 38 35 32 31 28 23 19 17 14 14 12 8 4 1
24 15 11 19 22 30 8 19 29 31 43 21 23 25 24 21 24 40 46 49 49 47 43 38 39 38 37 37 39 36 34 34 32 28 24 21 18 17 15 12 7 4 2 6
29 17 17 19 11 12 29 35 44 48 32 20 27 29 31 38 40 45 50 53 52 50 47 43 43 42 39 37 37 39 36 34 31 28 24 21 19 15 12 9 3 2 2 7
16 8 26 25 30 30 33 32 39 28 36 31 25 27 34 46 47 51 53 55 56 54 51 48 48 47 44 40 38 36 36 33 30 27 25 21 17 11 8 4 3 2 8 9
20 19 21 30 30 30 39 32 26 35 34 29 22 30 40 44 52 57 59 59 57 55 52 51 49 47 45 43 40 36 33 31 29 27 23 19 15 13 7 10 9 9 15 14
30 31 21 17 25 26 31 31 25 31 43 38 34 34 39 46 55 60 60 61 60 60 56 53 50 48 45 42 39 35 32 31 30 27 23 20 15 14 10 8 11 14 17 18
Wind_Direction_500mb
205 226 235 246 245 307 308 298 287 113 214 253 257 276 172 194 183 190 180 187 189 189 180 177 174 170 167 172 175 177 178 183 193 196 197 202 209 209 213 216 221 227 229 240
217 230 253 275 275 252 247 255 260 189 162 247 265 283 221 164 192 196 186 186 195 184 184 183 183 183 184 185 184 181 187 194 197 202 206 211 216 219 219 222 224 231 228 226
227 235 207 215 212 240 237 258 263 283 228 225 258 265 53 179 186 195 199 190 187 192 187 187 188 192 191 192 193 195 198 202 202 206 211 216 217 219 220 222 227 236 236 241
228 237 201 217 242 245 251 217 274 288 263 266 333 272 246 197 193 197 201 204 186 191 192 193 194 197 199 199 200 202 204 206 210 211 214 215 218 219 221 222 225 238 240 240
221 229 212 239 250 238 261 17 256 260 262 281 232 262 161 232 208 195 202 202 202 192 195 197 200 200 202 204 206 207 209 211 213 215 215 219 221 224 225 227 226 240 246 244
236 207 220 230 203 242 245 222 239 251 252 253 255 232 145 265 240 173 181 202 207 202 200 202 204 203 205 207 208 212 212 215 217 218 220 219 222 221 224 227 234 247 248 253
219 202 212 242 219 190 219 230 238 238 230 241 249 273 255 267 150 261 269 208 200 212 207 204 202 202 205 207 209 210 214 217 219 219 220 224 224 225 227 223 242 243 252 239
210 213 209 184 236 222 206 235 213 249 244 227 260 235 248 57 22 260 267 246 244 217 214 211 208 206 206 207 208 211 213 216 217 220 220 221 236 233 234 235 233 238 234 242
202 222 198 209 211 232 244 217 236 270 239 274 265 210 180 153 150 244 270 275 253 228 219 214 211 210 208 207 208 211 213 217 217 223 217 220 235 233 235 237 233 233 240 244
221 219 186 174 227 229 253 234 219 232 243 240 241 244 121 174 147 125 122 62 77 166 203 211 215 209 211 209 209 210 213 215 218 223 227 222 224 235 237 238 237 241 250 258
225 224 169 163 207 202 197 237 221 230 244 269 274 237 27 129 145 245 276 10 69 83 157 186 202 212 210 210 208 207 212 212 216 216 223 228 228 239 240 241 243 252 255 258
220 213 200 203 217 228 208 217 212 231 216 227 261 270 210 277 282 257 236 211 122 113 141 157 167 181 195 203 205 206 207 206 206 209 214 223 224 215 218 230 241 250 256 257
210 221 220 218 179 210 236 231 217 220 253 209 234 259 292 258 223 214 231 225 197 188 159 157 157 158 164 173 179 182 181 183 185 188 202 207 212 215 224 234 237 241 245 238
213 211 222 220 217 207 214 237 226 229 224 242 250 268 254 229 225 238 213 227 221 201 186 171 159 155 155 158 158 157 161 164 159 189 202 209 210 215 217 223 229 226 228 226
227 216 222 227 247 241 219 211 224 236 231 238 250 255 266 264 265 273 242 180 220 212 204 193 181 166 157 150 148 171 177 180 187 192 189 186 190 199 209 201 205 219 212 213
212 220 230 237 235 251 251 242 236 235 232 249 246 256 275 283 275 255 233 216 220 209 201 197 193 174 162 156 154 149 163 173 179 174 182 173 178 160 159 164 164 167 191 203
216 219 221 235 225 231 237 241 245 247 252 246 247 259 265 253 247 238 248 218 217 196 188 180 175 167 159 156 148 145 148 150 155 147 141 140 140 144 140 138 138 142 149 167
232 225 232 218 254 235 237 239 235 240 254 245 243 257 269 278 272 327 205 222 197 183 169 162 159 155 148 143 139 133 132 129 129 130 133 133 132 129 132 128 121 117 133 218
241 253 225 221 221 241 234 220 227 243 248 239 254 264 267 284 152 209 202 195 185 175 163 153 150 147 141 138 136 133 132 131 128 125 125 128 133 128 125 124 133 148 58 65
276 247 231 186 230 230 235 242 221 250 251 251 252 262 258 161 233 265 181 173 165 163 159 151 145 141 138 137 137 133 131 130 130 132 132 132 131 135 133 122 128 137 142 140
217 219 230 224 235 242 227 228 223 205 251 263 236 252 233 221 249 145 160 166 164 161 156 149 145 142 141 141 140 136 139 139 135 132 137 142 139 133 134 136 134 129 131 190
183 205 194 234 232 233 140 155 203 224 248 249 234 247 229 201 151 157 161 162 160 157 154 150 147 145 145 146 147 143 139 140 141 139 134 132 137 133 134 136 130 128 244 280
214 199 219 211 233 213 196 219 225 247 276 236 241 231 208 174 172 171 168 166 162 161 157 157 154 150 149 152 154 151 148 146 143 140 139 141 138 137 140 145 174 192 289 287
241 259 231 245 242 251 248 254 266 281 257 263 235 222 198 181 179 176 173 171 166 166 164 163 160 156 155 157 158 155 152 149 146 143 144 145 146 151 162 155 180 221 268 292
228 192 239 252 254 270 264 254 260 268 254 248 234 214 198 183 182 180 178 176 171 168 168 166 165 161 159 158 156 155 154 152 150 152 154 160 173 165 169 212 210 253 281 292
238 241 230 244 248 238 248 242 259 264 245 242 221 208 200 191 184 183 182 179 174 171 169 167 167 164 161 159 157 156 156 161 162 164 169 183 191 190 171 185 291 292 293 292
Wind_Speed_850mb
40 27 29 35 16 20 25 29 24 33 35 28 14 18 17 32 26 26 30 32 37 36 35 38 44 45 47 50 55 58 61 57 43 37 39 39 35 32 34 36 42 48 43 42
28 30 34 8 10 17 22 27 27 12 10 15 21 25 22 24 28 31 30 36 36 35 42 43 51 52 54 56 57 57 54 49 44 38 37 36 34 34 38 40 37 44 50 37
32 19 10 13 21 20 22 28 24 18 11 24 29 34 4 18 31 30 33 37 40 45 49 48 52 55 56 59 61 58 53 49 45 40 37 37 36 38 40 41 42 56 58 52
32 27 16 23 23 21 26 27 23 19 20 19 17 16 17 25 27 28 36 35 43 49 51 54 56 60 61 62 59 57 52 49 46 44 41 40 40 39 40 41 43 56 60 52
34 30 21 30 29 24 23 2 15 24 28 29 29 15 22 13 21 30 34 42 41 49 55 60 63 64 64 62 66 61 55 51 48 46 47 43 45 39 37 37 41 52 53 57
36 29 27 33 13 15 16 14 19 23 22 23 27 27 8 29 18 17 23 38 45 48 55 57 58 58 59 59 61 63 60 58 55 54 53 54 48 47 40 39 50 48 51 48
39 29 28 13 21 17 21 25 17 12 17 20 9 13 12 25 7 3 6 18 41 48 53 58 60 62 61 63 65 65 61 61 59 61 60 57 54 49 45 46 50 38 39 43
33 37 41 28 33 23 32 31 13 12 12 8 10 13 12 15 5 9 13 13 18 32 54 60 61 63 62 65 64 61 59 59 57 58 59 49 50 55 57 51 47 46 47 49
35 41 33 38 32 31 27 28 32 22 15 13 14 15 24 13 8 6 5 8 7 21 41 55 61 61 60 58 61 63 56 54 54 59 51 57 53 62 57 48 51 56 46 54
18 25 26 24 20 26 27 18 19 16 8 20 19 17 8 13 12 9 7 10 5 4 15 28 49 59 57 54 53 52 52 51 51 54 49 55 55 63 53 49 55 55 48 45
37 25 21 22 27 33 22 22 19 19 23 8 11 9 18 16 8 3 2 2 5 4 8 16 27 39 52 49 46 46 45 46 45 45 51 47 53 48 34 32 41 41 40 36
47 23 21 34 36 40 19 33 35 20 26 19 16 23 4 11 9 9 16 8 5 5 7 12 17 25 34 41 43 42 40 40 39 37 38 39 32 36 38 36 38 38 37 34
41 27 25 31 23 19 24 29 29 31 21 21 9 15 4 4 9 13 15 15 16 12 13 16 19 24 28 32 35 35 32 32 32 30 40 42 41 40 35 30 30 31 30 30
46 33 39 28 35 30 37 35 32 29 18 24 27 31 24 20 26 25 27 20 24 22 20 21 23 26 29 31 33 33 36 38 35 46 47 38 33 28 21 19 19 19 23 25
31 44 40 43 38 31 35 46 42 40 35 33 29 34 24 22 26 24 12 18 21 25 24 25 27 27 29 30 32 29 39 41 40 33 27 23 18 15 13 14 13 15 18 19
33 31 42 43 39 39 35 35 37 40 37 34 37 40 22 29 29 14 11 17 23 23 26 26 28 29 30 30 31 28 26 28 26 24 20 19 16 19 20 17 16 14 12 10
25 26 32 32 33 37 31 34 36 37 34 31 34 30 29 19 22 23 30 18 21 22 23 26 30 31 30 29 30 31 25 25 24 24 28 28 29 26 24 21 20 15 10 2
14 27 23 18 5 26 20 29 39 43 41 35 33 34 29 29 31 13 9 21 20 23 28 32 34 34 33 34 35 36 33 32 32 33 31 30 28 27 25 21 17 9 5 3
20 21 16 16 25 26 36 18 24 31 32 33 32 31 34 19 4 12 16 23 30 31 30 34 36 38 38 38 38 38 37 36 35 35 34 31 25 23 20 16 11 5 3 5
28 24 20 12 28 37 28 30 27 28 27 30 30 24 15 15 13 22 40 37 39 37 36 38 38 38 37 37 38 39 38 37 35 34 30 25 24 21 16 10 11 8 7 4
13 14 26 23 17 16 20 29 31 24 31 29 16 16 20 18 20 15 43 42 42 41 40 39 38 37 37 38 39 40 38 35 32 31 28 23 19 17 14 14 12 8 4 1
24 15 11 19 22 30 8 19 29 31 43 21 23 25 24 21 24 40 46 49 49 47 43 38 39 38 37 37 39 36 34 34 32 28 24 21 18 17 15 12 7 4 2 6
29 17 17 19 11 12 29 35 44 48 32 20 27 29 31 38 40 45 50 53 52 50 47 43 43 42 39 37 37 39 36 34 31 28 24 21 19 15 12 9 3 2 2 7
16 8 26 25 30 30 33 32 39 28 36 31 25 27 34 46 47 51 53 55 56 54 51 48 48 47 44 40 38 36 36 33 30 27 25 21 17 11 8 4 3 2 8 9
20 19 21 30 30 30 39 32 26 35 34 29 22 30 40 44 52 57 59 59 57 55 52 51 49 47 45 43 40 36 33 31 29 27 23 19 15 13 7 10 9 9 15 14
30 31 21 17 25 26 31 31 25 31 43 38 34 34 39 46 55 60 60 61 60 60 56 53 50 48 45 42 39 35 32 31 30 27 23 20 15 14 10 8 11 14 17 18
Wind_Direction_850mb
205 226 235 246 245 307 308 298 287 113 214 253 257 276 172 194 183 190 180 187 189 189 180 177 174 170 167 172 175 177 178 183 193 196 197 202 209 209 213 216 221 227 229 240
217 230 253 275 275 252 247 255 260 189 162 247 265 283 221 164 192 196 186 186 195 184 184 183 183 183 184 185 184 181 187 194 197 202 206 211 216 219 219 222 224 231 228 226
227 235 207 215 212 240 237 258 263 283 228 225 258 265 53 179 186 195 199 190 187 192 187 187 188 192 191 192 193 195 198 202 202 206 211 216 217 219 220 222 227 236 236 241
228 237 201 217 242 245 251 217 274 288 263 266 333 272 246 197 193 197 201 204 186 191 192 193 194 197 199 199 200 202 204 206 210 211 214 215 218 219 221 222 225 238 240 240
221 229 212 239 250 238 261 17 256 260 262 281 232 262 161 232 208 195 202 202 202 192 195 197 200 200 202 204 206 207 209 211 213 215 215 219 221 224 225 227 226 240 246 244
236 207 220 230 203 242 245 222 239 251 252 253 255 232 145 265 240 173 181 202 207 202 200 202 204 203 205 207 208 212 212 215 217 218 220 219 222 221 224 227 234 247 248 253
219 202 212 242 219 190 219 230 238 238 230 241 249 273 255 267 150 261 269 208 200 212 207 204 202 202 205 207 209 210 214 217 219 219 220 224 224 225 227 223 242 243 252 239
210 213 209 184 236 222 206 235 213 249 244 227 260 235 248 57 22 260 267 246 244 217 214 211 208 206 206 207 208 211 213 216 217 220 220 221 236 233 234 235 233 238 234 242
202 222 198 209 211 232 244 217 236 270 239 274 265 210 180 153 150 244 270 275 253 228 219 214 211 210 208 207 208 211 213 217 217 223 217 220 235 233 235 237 233 233 240 244
221 219 186 174 227 229 253 234 219 232 243 240 241 244 121 174 147 125 122 62 77 166 203 211 215 209 211 209 209 210 213 215 218 223 227 222 224 235 237 238 237 241 250 258
225 224 169 163 207 202 197 237 221 230 244 269 274 237 27 129 145 245 276 10 69 83 157 186 202 212 210 210 208 207 212 212 216 216 223 228 228 239 240 241 243 252 255 258
220 213 200 203 217 228 208 217 212 231 216 227 261 270 210 277 282 257 236 211 122 113 141 157 167 181 195 203 205 206 207 206 206 209 214 223 224 215 218 230 241 250 256 257
210 221 220 218 179 210 236 231 217 220 253 209 234 259 292 258 223 214 231 225 197 188 159 157 157 158 164 173 179 182 181 183 185 188 202 207 212 215 224 234 237 241 245 238
213 211 222 220 217 207 214 237 226 229 224 242 250 268 254 229 225 238 213 227 221 201 186 171 159 155 155 158 158 157 161 164 159 189 202 209 210 215 217 223 229 226 228 226
227 216 222 227 247 241 219 211 224 236 231 238 250 255 266 264 265 273 242 180 220 212 204 193 181 166 157 150 148 171 177 180 187 192 189 186 190 199 209 201 205 219 212 213
212 220 230 237 235 251 251 242 236 235 232 249 246 256 275 283 275 255 233 216 220 209 201 197 193 174 162 156 154 149 163 173 179 174 182 173 178 160 159 164 164 167 191 203
216 219 221 235 225 231 237 241 245 247 252 246 247 259 265 253 247 238 248 218 217 196 188 180 175 167 159 156 148 145 148 150 155 147 141 140 140 144 140 138 138 142 149 167
232 225 232 218 254 235 237 239 235 240 254 245 243 257 269 278 272 327 205 222 197 183 169 162 159 155 148 143 139 133 132 129 129 130 133 133 132 129 132 128 121 117 133 218
241 253 225 221 221 241 234 220 227 243 248 239 254 264 267 284 152 209 202 195 185 175 163 153 150 147 141 138 136 133 132 131 128 125 125 128 133 128 125 124 133 148 58 65
276 247 231 186 230 230 235 242 221 250 251 251 252 262 258 161 233 265 181 173 165 163 159 151 145 141 138 137 137 133 131 130 130 132 132 132 131 135 133 122 128 137 142 140
217 219 230 224 235 242 227 228 223 205 251 263 236 252 233 221 249 145 160 166 164 161 156 149 145 142 141 141 140 136 139 139 135 132 137 142 139 133 134 136 134 129 131 190
183 205 194 234 232 233 140 155 203 224 248 249 234 247 229 201 151 157 161 162 160 157 154 150 147 145 145 146 147 143 139 140 141 139 134 132 137 133 134 136 130 128 244 280
214 199 219 211 233 213 196 219 225 247 276 236 241 231 208 174 172 171 168 166 162 161 157 157 154 150 149 152 154 151 148 146 143 140 139 141 138 137 140 145 174 192 289 287
241 259 231 245 242 251 248 254 266 281 257 263 235 222 198 181 179 176 173 171 166 166 164 163 160 156 155 157 158 155 152 149 146 143 144 145 146 151 162 155 180 221 268 292
228 192 239 252 254 270 264 254 260 268 254 248 234 214 198 183 182 180 178 176 171 168 168 166 165 161 159 158 156 155 154 152 150 152 154 160 173 165 169 212 210 253 281 292
238 241 230 244 248 238 248 242 259 264 245 242 221 208 200 191 184 183 182 179 174 171 169 167 167 164 161 159 157 156 156 161 162 164 169 183 191 190 171 185 291 292 293 292